This demonstration page uses our WeatherBlox Daily Observations layout. Learn more.

Left ArrowRight Arrow

40.92501, -98.34201

Hourly Observations for February 9, 2022

Temp ( °F °C ) Dew Point ( °F °C ) Humidity (%) Winds ( mph kmh ) Pressure ( in mb ) Visibility ( mi km ) Precip ( " mm )
12:53 am 00:53 Partly Cloudy 37 2.8 14 -10 39 39 WNW 9 15 30.03 1017 10 16 0.00 0.00
1:53 am 01:53 Mostly Cloudy 34 1.1 14 -10 44 44 W 9 15 30.00 1016 10 16 0.00 0.00
2:53 am 02:53 Clear 35 1.7 14 -10 42 42 W 10 17 30.00 1016 10 16 0.00 0.00
3:53 am 03:53 Mostly Clear 35 1.7 14 -10 42 42 W 14 22 30.00 1016 10 16 0.00 0.00
4:53 am 04:53 Clear 38 3.3 15 -9.4 39 39 WNW 14 22 29.99 1016 10 16 0.00 0.00
5:53 am 05:53 Clear 34 1.1 15 -9.4 46 46 W 13 20 30.02 1017 10 16 0.00 0.00
6:53 am 06:53 Mostly Clear 34 1.1 15 -9.4 46 46 WNW 14 22 30.03 1017 10 16 0.00 0.00
7:53 am 07:53 Sunny 30 -1.1 15 -9.4 54 54 W 9 15 30.05 1018 10 16 0.00 0.00
8:53 am 08:53 Sunny 38 3.3 17 -8.3 43 43 WNW 13 20 30.07 1018 10 16 0.00 0.00
9:53 am 09:53 Sunny 45 7.2 19 -7.2 35 35 NW 18 30 30.06 1018 10 16 0.00 0.00
10:53 am 10:53 Sunny 49 9.4 19 -7.2 31 31 NNW 23 37 30.06 1018 10 16 0.00 0.00
11:53 am 11:53 Sunny 49 9.4 19 -7.2 31 31 NNW 24 39 30.05 1018 10 16 0.00 0.00
12:53 pm 12:53 Sunny 51 10.6 20 -6.7 29 29 NNW 25 41 30.03 1017 10 16 0.00 0.00
1:53 pm 13:53 Sunny 51 10.6 19 -7.2 28 28 NW 24 39 30.01 1016 10 16 0.00 0.00
2:53 pm 14:53 Sunny 52 11.1 19 -7.2 27 27 NW 22 35 30.01 1016 10 16 0.00 0.00
3:53 pm 15:53 Sunny 52 11.1 19 -7.2 27 27 NNW 20 31 30.01 1016 10 16 0.00 0.00
4:53 pm 16:53 Sunny 51 10.6 20 -6.7 29 29 NNW 14 22 30.01 1016 10 16 0.00 0.00
5:53 pm 17:53 Mostly Sunny 45 7.2 19 -7.2 35 35 NNE 8 13 30.02 1017 10 16 0.00 0.00
6:53 pm 18:53 Clear 40 4.4 18 -7.8 41 41 N 6 9 30.06 1018 10 16 0.00 0.00
7:53 pm 19:53 Cloudy 41 5 19 -7.2 41 41 N 6 9 30.09 1019 10 16 0.00 0.00
8:53 pm 20:53 Cloudy 41 5 20 -6.7 43 43 N 9 15 30.11 1020 10 16 0.00 0.00
9:53 pm 21:53 Cloudy 42 5.6 26 -3.3 53 53 NNW 16 26 30.11 1020 10 16 0.00 0.00
10:53 pm 22:53 Mostly Cloudy 39 3.9 26 -3.3 60 60 NW 9 15 30.13 1020 10 16 0.00 0.00
11:53 pm 23:53 Clear 32 0 23 -5 69 69 NNW 3 6 30.14 1021 10 16 0.00 0.00

Powered by AerisWeather